User: anonymous   Login
Location: ActonStarParty
(42.4766°N, 71.4538°W)
Time: 08:58:59
(UTC-04:00)
Language:

ITAMSAT 1 - Orbit

View from above orbital plane
View from above orbital plane
View from above satellite
View from above satellite

Ground track
Ground track

The orbit data is extracted from the following two-line orbital elements,

1 22826U 93061D   14302.93264082  .00000267  00000-0  12068-3 0  5657
2 22826 098.6721 248.5857 0007933 251.9778 108.0540 14.30076588100174
Epoch (UTC): 29 October 2014 22:23:00
Eccentricity: 0.0007933
inclination: 98.6721°
perigee height: 786 km
apogee height: 797 km
right ascension of ascending node: 248.5857°
argument of perigee: 251.9778°
revolutions per day: 14.30076588
mean anomaly at epoch: 108.0540°
orbit number at epoch: 10017

The dashed part of the orbit path shows where the satellite is in the earth's shadow,  

DLR